Aérodrome :
LOGIN :

S'inscrire | Disclaimer

   EN    FR    IT 

 










Légende :    VFR   VFR Marginal   IFR   IFR Intensif   IFR Très Intensif
Visi : 
Plafond : 
>= 8 km
>= 3000ft
5 à 8 km
1000 à 3000 ft
1500m à 5 km
500 à 1000 ft
800 à 1500m
200 à 500 ft
< 800m
< 200 ft
Symboles :   Orages  Brouillard  Fortes neiges  Fortes précipitations  Vent > 20 kt
SIGMETs :   Divers  Orages  Givrage  Turbulence  Onde Orograph.  Cendres Volcan.







- Altitude de l'aérodrome : 1202 ft
- Code IATA : IGS


ETSI - Ingolstadt

DERNIER METAR :
  • 171520Z VRB03KT 9999 FEW040 SCT170 BKN240 27/17 Q1018 BLU+BLU+

METARs EXPIRÉS :
  • 171420Z 31004KT 9999 FEW040 SCT160 BKN240 26/17 Q1018 BLU+BLU+
  • 171320Z 25005KT 9999 FEW040 BKN250 27/17 Q1019 BLU+BLU+
  • 171220Z 21003KT 9999 FEW040 BKN250 27/17 Q1019 BLU+BLU+

TAF AMD TAF ETSI
Valide du 17 à 14h jusqu'au 17 à 23h UTC


171509Z 1714/1723 24005KT 9999 NSW SCT040 BKN200
PROB30 1715/1720 31010KT 9999 -TSRA SCT040CB BKN090 CANCEL 1600
Pas de NOTAMs connus pour ce terrain.



MET'MAP, la Météo Aéronautique d'un coup d'oeil ! - Copyright ORBIFLY Décembre 2007 - Disclaimer

ORBIFLY MET'MAP TEAM :

Programmation & Développement : Alexandra Zaïnal
Conception & Développement : Baudouin d'Aumeries
Co-Programmation & Développement : Marc-Olivier Méhu
Soutien technique & logistique : Manuel Goepfert

Contact : metmap@orbifly.com




SOURCES & CREDITS :

   NOAA